North Pole, Alaska, United States (99705)
Lat: 64.75N, Lon: 147.35W
Wx Zone: AKZ222
Local Info
Past Weather Observations for Tuesday, May 24, 2016

NOTE: This archive is for the closest National Weather Service station to North Pole. Information may differ from the station used for current weather conditions.

Click here for Long-term Archive

Time Weather Temperature Dewpoint Humidity Pressure Winds Precip Visibility
23:58
Overcast
43°F / 6°C 39°F / 4°C 87% 30.12 in
(1020 mb)
Variable 1.2 mph
(Variable 2 kph)
- 10SM
22:58
Partly Cloudy
43°F / 6°C 39°F / 4°C 87% 30.12 in
(1020 mb)
ENE 3.5 mph
(ENE 6 kph)
- 9SM
21:58
Partly Cloudy
48°F / 9°C 39°F / 4°C 71% 30.09 in
(1019 mb)
S 8.1 mph
(S 13 kph)
- 10SM
20:58
Partly Cloudy
52°F / 11°C 37°F / 3°C 58% 30.09 in
(1019 mb)
SSE 6.9 mph
(SSE 11 kph)
- 8SM
19:58
Overcast
52°F / 11°C 37°F / 3°C 58% 30.09 in
(1019 mb)
SSW 5.8 mph
(SSW 9 kph)
- 10SM
18:58
Mostly Cloudy
50°F / 10°C 37°F / 3°C 62% 30.09 in
(1019 mb)
NW 9.2 mph
(NW 15 kph)
0.00 in
(0.00 mm)
8SM
17:58
Overcast
50°F / 10°C 41°F / 5°C 71% 30.09 in
(1019 mb)
W 13.8 mph
(W 22 kph)
0.01 in
(0.25 mm)
7SM
17:57
Overcast
50°F / 10°C 41°F / 5°C 71% 30.09 in
(1019 mb)
W 13.8 mph
(W 22 kph)
- 7SM
17:43
Overcast
Light Rain
50°F / 10°C 39°F / 4°C 67% 30.09 in
(1019 mb)
NW 19.6 mph
(NW 32 kph)
- 6SM
17:32
Overcast
Light Rain
54°F / 12°C 39°F / 4°C 58% 30.06 in
(1018 mb)
SSW 10.4 mph
(SSW 17 kph)
- 9SM
17:09
Overcast
54°F / 12°C 37°F / 3°C 54% 30.06 in
(1018 mb)
SW 4.6 mph
(SW 7 kph)
- 9SM
16:58
Mostly Cloudy
Light Rain
54°F / 12°C 36°F / 2°C 51% 30.06 in
(1018 mb)
SSW 11.5 mph
(SSW 19 kph)
0.00 in
(0.00 mm)
7SM
16:54
Mostly Cloudy
Light Rain
55°F / 13°C 36°F / 2°C 47% 30.06 in
(1018 mb)
W 13.8 mph
(W 22 kph)
- 8SM
15:58
Mostly Cloudy
54°F / 12°C 36°F / 2°C 51% 30.06 in
(1018 mb)
Calm 0.00 in
(0.00 mm)
9SM
15:33
Mostly Cloudy
52°F / 11°C 37°F / 3°C 58% 30.09 in
(1019 mb)
Calm - 8SM
15:24
Mostly Cloudy
Light Rain
52°F / 11°C 39°F / 4°C 62% 30.09 in
(1019 mb)
NW 17.3 mph
(NW 28 kph)
- 5SM
15:18
Mostly Cloudy
Showers
52°F / 11°C 34°F / 1°C 50% 30.09 in
(1019 mb)
Variable 2.3 mph
(Variable 4 kph)
- 9SM
15:06
Partly Cloudy
Thunder Storms
54°F / 12°C 36°F / 2°C 51% 30.09 in
(1019 mb)
SW 5.8 mph
(SW 9 kph)
- 9SM
14:58
Mostly Cloudy
Showers
54°F / 12°C 34°F / 1°C 47% 30.09 in
(1019 mb)
SSW 16.1 mph
(SSW 26 kph)
- 9SM
14:51
Mostly Cloudy
Light Rain
55°F / 13°C 34°F / 1°C 44% 30.09 in
(1019 mb)
SSW 11.5 mph
(SSW 19 kph)
- 9SM
13:58
Mostly Cloudy
55°F / 13°C 34°F / 1°C 44% 30.09 in
(1019 mb)
SSW 11.5 mph
(SSW 19 kph)
0.00 in
(0.00 mm)
9SM
13:05
Mostly Cloudy
52°F / 11°C 36°F / 2°C 54% 30.09 in
(1019 mb)
W 6.9 mph
(W 11 kph)
- 9SM
12:58
Mostly Cloudy
Light Rain
52°F / 11°C 36°F / 2°C 54% 30.09 in
(1019 mb)
NW 8.1 mph
(NW 13 kph)
0.00 in
(0.00 mm)
7SM
12:49
Mostly Cloudy
Light Rain
52°F / 11°C 34°F / 1°C 50% 30.12 in
(1020 mb)
W 13.8 mph
(W 22 kph)
- 9SM
12:45
Mostly Cloudy
Light Rain
54°F / 12°C 34°F / 1°C 47% 30.09 in
(1019 mb)
W 15 mph
(W 24 kph)
- 9SM
11:58
Mostly Cloudy
52°F / 11°C 32°F / 0°C 47% 30.12 in
(1020 mb)
SW 12.7 mph
(SW 20 kph)
- 9SM
10:58
Mostly Cloudy
50°F / 10°C 32°F / 0°C 50% 30.12 in
(1020 mb)
W 10.4 mph
(W 17 kph)
- 8SM
09:58
Mostly Cloudy
48°F / 9°C 34°F / 1°C 58% 30.12 in
(1020 mb)
SW 11.5 mph
(SW 19 kph)
- 10SM
08:58
Overcast
48°F / 9°C 34°F / 1°C 58% 30.12 in
(1020 mb)
SSW 11.5 mph
(SSW 19 kph)
- 9SM
08:18
Overcast
46°F / 8°C 34°F / 1°C 62% 30.12 in
(1020 mb)
W 6.9 mph
(W 11 kph)
- 9SM
07:58
Overcast
46°F / 8°C 34°F / 1°C 62% 30.12 in
(1020 mb)
S 4.6 mph
(S 7 kph)
- 9SM
06:58
Overcast
45°F / 7°C 36°F / 2°C 71% 30.12 in
(1020 mb)
SW 6.9 mph
(SW 11 kph)
- 8SM
05:58
Overcast
43°F / 6°C 37°F / 3°C 81% 30.12 in
(1020 mb)
SW 5.8 mph
(SW 9 kph)
- 8SM
04:58
Mostly Cloudy
43°F / 6°C 37°F / 3°C 81% 30.12 in
(1020 mb)
SW 5.8 mph
(SW 9 kph)
- 8SM
03:58
Overcast
45°F / 7°C 37°F / 3°C 76% 30.09 in
(1019 mb)
W 5.8 mph
(W 9 kph)
- 9SM
02:58
Overcast
45°F / 7°C 37°F / 3°C 76% 30.09 in
(1019 mb)
W 3.5 mph
(W 6 kph)
- 9SM
01:58
Overcast
45°F / 7°C 39°F / 4°C 81% 30.06 in
(1018 mb)
W 5.8 mph
(W 9 kph)
- 10SM
00:58
Mostly Cloudy
46°F / 8°C 37°F / 3°C 71% 30.06 in
(1018 mb)
SSW 8.1 mph
(SSW 13 kph)
- 10SM
Time Weather Temperature Dewpoint Humidity Pressure Winds Precip Visibility


Weather for websites

WeatherForYou.com, LLC is not responsible for any damages or problems caused by this service. Current weather conditions are obtained from the closest station including government and personal stations which may have varying degrees of accuracy. Weather forecasts are derived from the NOAA NDFD. Like all things, this site belongs to Jesus Christ... He just trusts us to maintain it. If you have any questions or comments email webmaster@weatherforyou.com

Copyright © 2016, WeatherForYou.com LLC. All rights reserved.